Flag for U.S.A. Weather past 2 weeks in Pocatello, Idaho, U.S.A.

Now
72 °F

Passing clouds.


Feels Like: 74 °F
Forecast: 42 / 83 °F
Wind: 3 mph from North

Location: Pocatello Regional Airport

Current Time: Jul 28, 2015 at 7:20:05 PM

Latest Report: Jul 28, 2015 at 6:53 PM


Visibility: 10 mi

Pressure: 30.20 "Hg (25.81 "Hg at 1357m altitude)

Humidity: 16%

Dew point: 23 °F

Location of PocatelloLocation

Historic Weather in Pocatello — Graph

°F

Pocatello temperature yesterday

Maximum temperature yesterday: 69 °F (at 4:53 PM)
Minimum temperature yesterday: 47 °F (at 10:53 PM)
Average temperature yesterday: 60 °F

Past Weeks' High & Low Weather Summary

 TemperatureHumidityPressure
High89 °F (Jul 21, 2:53 PM)100% (Jul 15, 3:53 AM)30.28 "Hg (Jul 15, 3:53 AM)
Low39 °F (Jul 28, 6:53 AM)14% (Jul 21, 4:53 PM)29.67 "Hg (Jul 26, 11:53 PM)
Average67 °F53%29.94 "Hg
* Reported Jul 13 5:53 PM — Jul 28 5:53 PM, Pocatello, Weather by CustomWeather, © 2015

Note: Actual official high and low records may vary slightly from our data, if they occured in-between our weather recording intervals... More about our weather records

Advertising

Pocatello weather history for previous 24 hours

 ConditionsComfort  
Time TempWeatherWind HumidityBarometerVisibility
5:53 PM
Tue, Jul 28
72 °FSunny.7 mph17%30.21 "Hg10 mi
4:53 PM72 °FPassing clouds.6 mph21%30.22 "Hg10 mi
3:53 PM69 °FPassing clouds.6 mph25%30.24 "Hg10 mi
2:53 PM69 °FScattered clouds.7 mph26%30.25 "Hg10 mi
1:53 PM67 °FScattered clouds.No wind27%30.26 "Hg10 mi
12:53 PM67 °FSunny.No wind24%30.26 "Hg10 mi
11:53 AM64 °FSunny.6 mph33%30.27 "Hg10 mi
10:53 AM61 °FPassing clouds.No wind42%30.28 "Hg10 mi
9:53 AM57 °FPassing clouds.No wind55%30.28 "Hg10 mi
8:53 AM53 °FSunny.6 mph69%30.27 "Hg10 mi
7:53 AM47 °FClear.3 mph90%30.25 "Hg10 mi
6:53 AM39 °FLight fog.No wind100%30.23 "Hg10 mi
5:53 AM42 °FClear.No wind96%30.20 "Hg10 mi
4:53 AM41 °FClear.No wind96%30.19 "Hg10 mi
3:53 AM40 °FClear.3 mph97%30.18 "Hg10 mi
2:53 AM41 °FClear.No wind96%30.18 "Hg10 mi
1:53 AM43 °FClear.9 mph100%30.17 "Hg10 mi
12:53 AM45 °FClear.3 mph93%30.19 "Hg10 mi
11:53 PM
Mon, Jul 27
47 °FClear.5 mph90%30.17 "Hg10 mi
10:53 PM47 °FSunny.6 mph90%30.16 "Hg10 mi
9:53 PM52 °FSunny.3 mph77%30.11 "Hg10 mi
8:53 PM55 °FSunny.7 mph62%30.06 "Hg10 mi
7:53 PM62 °FSunny.10 mph39%30.03 "Hg10 mi
Weather by CustomWeather, © 2015

See weather overviewHow to use our weather pages